TimePST,TemperatureF,Dew PointF,Humidity,Sea Level PressureIn,VisibilityMPH,Wind Direction,Wind SpeedMPH,Gust SpeedMPH,PrecipitationIn,Events,Conditions,WindDirDegrees,DateUTC
12:53 AM,54.0,46.9,77,30.03,10.0,SW,12.7,-,N/A,,Mostly Cloudy,220,2012-11-17 08:53:00
1:53 AM,54.0,46.9,77,30.02,10.0,SW,10.4,-,N/A,,Mostly Cloudy,220,2012-11-17 09:53:00
2:53 AM,53.1,46.0,77,30.01,10.0,Calm,Calm,-,N/A,,Overcast,0,2012-11-17 10:53:00
3:53 AM,54.0,46.9,77,30.00,10.0,Calm,Calm,-,N/A,,Overcast,0,2012-11-17 11:53:00
4:53 AM,55.4,46.4,72,30.04,10.0,WNW,4.6,-,N/A,,Overcast,290,2012-11-17 12:53:00
5:26 AM,55.4,48.2,77,30.04,10.0,Variable,5.8,-,N/A,,Mostly Cloudy,0,2012-11-17 13:26:00
5:53 AM,53.1,46.0,77,30.01,10.0,North,3.5,-,N/A,,Partly Cloudy,360,2012-11-17 13:53:00
6:53 AM,53.1,46.0,77,30.04,10.0,Calm,Calm,-,N/A,,Clear,0,2012-11-17 14:53:00
7:53 AM,57.0,45.0,64,30.05,10.0,SW,9.2,-,N/A,,Clear,220,2012-11-17 15:53:00
8:53 AM,57.9,44.1,60,30.06,10.0,Variable,3.5,-,N/A,,Mostly Cloudy,0,2012-11-17 16:53:00
9:53 AM,57.9,46.9,67,30.07,10.0,SSW,9.2,-,N/A,,Mostly Cloudy,210,2012-11-17 17:53:00
10:53 AM,60.1,46.9,62,30.06,10.0,SSW,5.8,-,N/A,,Overcast,210,2012-11-17 18:53:00
11:53 AM,63.0,45.0,52,30.03,10.0,SW,13.8,-,N/A,,Overcast,220,2012-11-17 19:53:00
12:53 PM,63.0,46.0,54,30.00,10.0,SW,15.0,24.2,N/A,,Scattered Clouds,220,2012-11-17 20:53:00
1:53 PM,63.0,45.0,52,29.99,10.0,SW,11.5,-,N/A,,Mostly Cloudy,230,2012-11-17 21:53:00
2:53 PM,62.1,46.0,56,29.99,10.0,SW,12.7,-,N/A,,Overcast,230,2012-11-17 22:53:00
3:53 PM,60.1,46.9,62,30.00,10.0,SW,12.7,19.6,N/A,,Overcast,220,2012-11-17 23:53:00
4:53 PM,57.9,48.0,70,30.01,10.0,West,13.8,-,N/A,,Scattered Clouds,260,2012-11-18 00:53:00
5:53 PM,57.0,48.9,74,30.03,10.0,West,10.4,-,N/A,,Mostly Cloudy,270,2012-11-18 01:53:00
6:53 PM,55.0,50.0,83,30.04,10.0,West,12.7,-,N/A,,Mostly Cloudy,270,2012-11-18 02:53:00
7:53 PM,55.0,48.9,80,30.05,10.0,West,8.1,-,N/A,,Scattered Clouds,260,2012-11-18 03:53:00
8:24 PM,55.4,48.2,77,30.08,10.0,WSW,10.4,-,N/A,,Mostly Cloudy,250,2012-11-18 04:24:00
8:33 PM,55.4,48.2,77,30.09,10.0,West,13.8,-,N/A,,Mostly Cloudy,270,2012-11-18 04:33:00
8:53 PM,55.9,48.9,77,30.07,10.0,West,10.4,-,N/A,,Overcast,270,2012-11-18 04:53:00
9:53 PM,53.1,48.0,83,30.06,10.0,SW,6.9,-,N/A,,Partly Cloudy,230,2012-11-18 05:53:00
10:53 PM,53.1,48.0,83,30.07,10.0,West,3.5,-,N/A,,Clear,280,2012-11-18 06:53:00
11:53 PM,53.1,46.9,80,30.07,10.0,WSW,8.1,-,N/A,,Clear,250,2012-11-18 07:53:00